Location: Newark
(48.3983°N, 16.0611°E)
Time: 19:10:16
(UTC+00:00)

ISS - Pass Details

Date: 25 January 2020
Orbit: 416 x 422 km, 51.6° (Epoch: 20 February)

Event Time Altitude Azimuth Distance (km) Brightness Sun altitude
Rises 18:10:59 0° 265° (W) 2,375 1.5 -24.4°
Reaches altitude 10° 18:13:07 10° 270° (W) 1,510 0.1 -24.8°
Enters shadow 18:15:13 33° 288° (WNW) 738 -2.0 -25.1°
